Tracking 30922 objects as of 2-Jul-2025
HD Live streaming from Space Station
objects crossing your sky now

BLOCK DM-SL R/B

Track BLOCK DM-SL R/B now!


NORAD ID: 28900
Int'l Code: 2005-044B
Perigee: 296.2 km
Apogee: 30,963.0 km
Inclination: 3.0 °
Period: 541.3 minutes
Semi major axis: 22000 km
RCS: 18.3139 m2 (large)
Launch date: November 8, 2005
Source: Sea Launch (SEAL)
Launch site: SEA LAUNCH (SEAL)

Note: This is a ROCKET BODY
Your satellite tracking list
OBJECT H
Track 1 satellite(s)




NASA's NSSDC Master Catalog

Two Line Element Set (TLE):
1 28900U 05044B   25182.57628471  .00000992  00000-0  50223-3 0  9995
2 28900   2.9886 287.6992 6969550  56.6990 351.5873  2.66043178175161
Source of the keplerian elements: AFSPC